DW4685 Weather Reports


time (UTC)temp
C
wind
direction
speed
KPH
gust
KPH
rain 1hr
cm
rain 24hr
cm
rain mn
cm
humidity
%
barometer
mb
20260906203003 29 0 0.0 0.0 0.00 0.00 0.00 70 1014.5
20260906201503 29 0 0.0 0.0 0.00 0.00 0.00 71 1014.7
20260906200219 29 0 0.0 0.0 0.00 0.00 0.00 71 1014.8
20260906194504 29 0 0.0 0.0 0.00 0.00 0.00 69 1015.0
20260906193219 29 0 0.0 0.0 0.00 0.00 0.00 71 1015.3
20260906191504 28 0 0.0 0.0 0.00 0.00 0.00 72 1015.3
20260906190218 28 0 0.0 0.0 0.00 0.00 0.00 73 1015.5
20260906184504 28 0 0.0 0.0 0.00 0.00 0.00 73 1015.6
20260906183004 28 0 0.0 0.0 0.00 0.00 0.00 75 1015.8
20260906181717 27 0 0.0 0.0 0.00 0.00 0.00 75 1015.9
20260906180218 27 0 0.0 0.0 0.00 0.00 0.00 76 1016.3
20260906174504 27 0 0.0 0.0 0.00 0.00 0.00 77 1016.6
20260906173004 26 0 0.0 0.0 0.00 0.00 0.00 79 1016.7
20260906171504 25 0 0.0 0.0 0.00 0.00 0.00 80 1016.9
20260906170004 25 0 0.0 0.0 0.00 0.00 0.00 81 1017.1
20260906164504 24 0 0.0 0.0 0.00 0.00 0.00 82 1017.3
20260906163004 23 0 0.0 0.0 0.00 0.00 0.00 84 1017.4
20260906161503 23 0 0.0 0.0 0.00 0.00 0.00 86 1017.5
20260906160005 22 0 0.0 0.0 0.00 0.00 0.00 87 1017.6
20260906154504 21 0 0.0 0.0 0.00 0.00 0.00 90 1017.8
20260906153003 20 0 0.0 0.0 0.00 0.00 0.00 93 1017.7
20260906151504 20 0 0.0 0.0 0.00 0.00 0.00 95 1017.9
20260906150004 19 0 0.0 0.0 0.00 0.00 0.00 95 1017.9
20260906144504 18 0 0.0 0.0 0.00 0.00 0.00 95 1018.0
20260906143003 18 0 0.0 0.0 0.00 0.00 0.00 95 1017.9
20260906141504 17 0 0.0 0.0 0.00 0.00 0.00 95 1017.9
20260906140004 17 0 0.0 0.0 0.00 0.00 0.00 95 1018.1
20260906134503 17 0 0.0 0.0 0.00 0.00 0.00 95 1018.1
20260906133003 17 0 0.0 0.0 0.00 0.00 0.00 94 1018.2
20260906131504 16 0 0.0 0.0 0.00 0.00 0.00 94 1018.1
20260906130218 16 0 0.0 0.0 0.00 0.00 0.00 94 1018.1
20260906124503 16 0 0.0 0.0 0.00 0.00 0.00 94 1018.2
20260906123003 16 0 0.0 0.0 0.00 0.00 0.00 94 1018.2
20260906121719 16 0 0.0 0.0 0.00 0.00 0.00 94 1018.1
20260906120004 16 0 0.0 0.0 0.00 0.00 0.00 94 1018.0
20260906114504 16 0 0.0 0.0 0.00 0.00 0.00 94 1018.0
20260906113003 16 0 0.0 0.0 0.00 0.00 0.00 94 1017.7
20260906111503 16 0 0.0 0.0 0.00 0.00 0.00 94 1017.4
20260906110005 16 0 0.0 0.0 0.00 0.00 0.00 94 1017.4
20260906104504 16 0 0.0 0.0 0.00 0.00 0.00 94 1017.2
20260906103004 16 0 0.0 0.0 0.00 0.00 0.00 94 1017.3
20260906101504 16 0 0.0 0.0 0.00 0.00 0.00 94 1017.3
20260906100004 16 0 0.0 0.0 0.00 0.00 0.00 94 1017.2
20260906094504 15 0 0.0 0.0 0.00 0.00 0.00 94 1017.2
20260906093004 15 0 0.0 0.0 0.00 0.00 0.00 93 1017.3
20260906091503 15 0 0.0 0.0 0.00 0.00 0.00 93 1017.3
20260906090004 15 0 0.0 0.0 0.00 0.00 0.00 93 1017.2
20260906084503 15 0 0.0 0.0 0.00 0.00 0.00 92 1017.1
20260906083218 15 0 0.0 0.0 0.00 0.00 0.00 93 1017.0
20260906081503 15 0 0.0 0.0 0.00 0.00 0.00 93 1016.8
20260906080004 15 0 0.0 0.0 0.00 0.00 0.00 93 1016.8
20260906074505 16 0 0.0 0.0 0.00 0.00 0.00 92 1017.0
20260906073004 16 0 0.0 0.0 0.00 0.00 0.00 93 1017.0
20260906071505 16 0 0.0 0.0 0.00 0.00 0.00 93 1017.2
20260906070004 16 0 0.0 0.0 0.00 0.00 0.00 93 1017.3
20260906064504 16 0 0.0 0.0 0.00 0.00 0.00 93 1017.2
20260906063004 16 0 0.0 0.0 0.00 0.00 0.00 93 1017.4
20260906061504 17 0 0.0 0.0 0.00 0.00 0.00 94 1017.7
20260906060217 16 0 0.0 0.0 0.00 0.00 0.00 94 1017.8
20260906054503 15 0 0.0 0.0 0.00 0.00 0.00 93 1018.0
20260906053004 15 0 0.0 0.0 0.00 0.00 0.00 92 1017.9
20260906051504 15 0 0.0 0.0 0.00 0.00 0.00 92 1018.1
20260906050004 15 0 0.0 0.0 0.00 0.00 0.00 91 1018.1
20260906044718 15 0 0.0 0.0 0.00 0.00 0.00 91 1017.9
20260906043003 15 0 0.0 0.0 0.00 0.00 0.00 91 1017.8
20260906041505 16 0 0.0 0.0 0.00 0.00 0.00 91 1017.7
20260906040004 16 0 0.0 0.0 0.00 0.00 0.00 91 1017.5
20260906034504 16 0 0.0 0.0 0.00 0.00 0.00 91 1017.2
20260906033004 16 0 0.0 0.0 0.00 0.00 0.00 91 1017.0
20260906031504 17 0 0.0 0.0 0.00 0.00 0.00 91 1016.7
20260906030004 17 0 0.0 0.0 0.00 0.00 0.00 91 1016.7
20260906024504 17 0 0.0 0.0 0.00 0.00 0.00 90 1016.8
20260906023004 17 0 0.0 0.0 0.00 0.00 0.00 91 1016.8
20260906021503 17 0 0.0 0.0 0.00 0.00 0.00 90 1016.8
20260906020003 17 0 0.0 0.0 0.00 0.00 0.00 89 1016.7
20260906014504 17 0 0.0 0.0 0.00 0.00 0.00 89 1016.4
20260906013218 18 0 0.0 0.0 0.00 0.00 0.00 87 1016.0
20260906011717 18 0 0.0 0.0 0.00 0.00 0.00 86 1016.0
20260906010004 19 0 0.0 0.0 0.00 0.00 0.00 86 1016.0
20260906004503 20 0 0.0 0.0 0.00 0.00 0.00 85 1016.0
20260906003004 20 0 0.0 0.0 0.00 0.00 0.00 85 1015.9
20260906001504 21 0 0.0 0.0 0.00 0.00 0.00 84 1015.8
20260906000004 21 0 0.0 0.0 0.00 0.00 0.00 84 1015.9
20260905234718 21 0 0.0 0.0 0.00 0.00 0.00 84 1015.8
20260905233217 21 0 0.0 0.0 0.00 0.00 0.00 83 1015.7
20260905231503 21 0 0.0 0.0 0.00 0.00 0.00 80 1015.4
20260905230004 22 0 0.0 0.0 0.00 0.00 0.00 80 1015.2
20260905224718 22 0 0.0 0.0 0.00 0.00 0.00 80 1015.4
20260905223004 22 0 0.0 0.0 0.00 0.00 0.00 79 1015.2
20260905221717 23 0 0.0 0.0 0.00 0.00 0.00 78 1015.3
20260905220004 23 0 0.0 0.0 0.00 0.00 0.00 77 1015.7
20260905214504 23 0 0.0 0.0 0.00 0.00 0.00 78 1015.8
20260905213004 22 0 0.0 0.0 0.00 0.00 0.00 79 1016.1
20260905211503 22 0 0.0 0.0 0.00 0.00 0.00 81 1016.2
20260905210004 21 0 0.0 0.0 0.00 0.00 0.00 81 1016.3
20260905204504 21 0 0.0 0.0 0.00 0.00 0.00 82 1016.5